Regional Weather Roundup
Issued by NWS

Home | Current Version | Previous Version | Graphics & Text | Print | Product List | Glossary On
Versions: 1 2 3 4 5 6 7 8 9 10 11 12 13 14 15 16 17 18 19 20 21 22 23 24 25 26 27 28 29 30 31 32 33 34 35 36 37 38 39 40 41 42 43 44 45 46 47 48 49 50
000
ASUS43 KTOP 051559
RWRKS

WEATHER ROUNDUP FOR KANSAS
NATIONAL WEATHER SERVICE GOODLAND KS
1100 AM CDT SUN JUL 05 2015

NOTE:  "FAIR" INDICATES FEW OR NO CLOUDS BELOW 12,000 FEET WITH NO
SIGNIFICANT WEATHER AND/OR OBSTRUCTIONS TO VISIBILITY.

KSZ001>006-013>018-027>032-041>047-051700-
NORTHWEST KANSAS

CITY           SKY/WX    TMP DP  RH WIND       PRES   REMARKS
GOODLAND       SUNNY     87  59  38 S9        29.88S
HAYS           SUNNY     90  64  43 S18G24    29.86S
HILL CITY      SUNNY     92  64  39 SW13G22   29.84F
RUSSELL        LGT RAIN  88  67  49 S25       29.85F
$$

KSZ061>065-074>080-084>089-051700-
SOUTHWEST KANSAS

CITY           SKY/WX    TMP DP  RH WIND       PRES   REMARKS
DODGE CITY     SUNNY     86  62  44 SW18G31   29.92F
ELKHART          N/A     88  58  36 S16         N/A
GARDEN CITY    SUNNY     87  64  46 S16G24    29.90F
GREAT BEND     MOSUNNY   84  66  54 S16       29.89F
LIBERAL        SUNNY     88  64  45 S23G29    29.97R
$$

KSZ066>073-081>083-090>101-051700-
SOUTHEAST KANSAS

CITY           SKY/WX    TMP DP  RH WIND       PRES   REMARKS
CHANUTE        MOSUNNY   83  72  69 S12       30.00S
COFFEYVILLE    MOSUNNY   83  73  72 S10       29.99F
HUTCHINSON     MOSUNNY   88  69  53 S16       29.93S
MEDICINE LODGE   N/A     89  67  47 S13G25    29.92F
NEWTON         SUNNY     88  66  48 S17       29.97S
PARSONS        MOSUNNY   81  73  76 S10       30.01S
WICHITA INTL   MOSUNNY   87  70  56 S18       29.94F
WICHITA JABRA  SUNNY     85  70  60 S16       29.95F
WINFIELD       SUNNY     84  71  65 S10       29.98F
$$

KSZ007>012-019>026-033>040-048>060-102>105-051700-
NORTHEAST KANSAS

CITY           SKY/WX    TMP DP  RH WIND       PRES   REMARKS
CONCORDIA      SUNNY     86  70  58 S21       29.88F
EMPORIA        TSTM      75  67  76 SE17G41   29.97R
LAWRENCE       CLOUDY    82  71  69 S13       29.96F
MANHATTAN      PTSUNNY   84  72  67 S15       29.92F
OLATHE IND     CLOUDY    82  71  69 S14       29.99F
OLATHE EXE     CLOUDY    80  70  71 S14G21    29.98F
SALINA         SUNNY     90  69  50 S16G23    29.89F
TOPEKA BILLARD CLOUDY    83  73  72 SE17      29.95F
TOPEKA FORBES  CLOUDY    83  72  69 S13       29.95F
$$


USA.gov is the U.S. government's official web portal to all federal, state and local government web resources and services.